Weather in Ryazantsevo

Russia / Yaroslavl Oblast     56°42′42″N   39°12′34″E
temp.,
°C
wind,
m/s
gust,
m/s
humid.,
%
clouds,
%
prec.,
mm/h
press.,
hPa
HPBL,
m
16 september, thu
thu1600:00+4wnw499496 0.0 1013324
03:00+6nw5994100 0.4 1014547
06:00+6n489494 0.4 1016490
09:00+7n467811 0.4 1017650
12:00+9nnw4559100 0.0 10181327
15:00+7nnw4562100 0.0 10191103
18:00+6nnw3568100 0.0 1019496
21:00+5nw3572100 0.0 1020330
17 september, fri
fri1700:00+5nw3678100 0.0 1020321
03:00+4nw2481100 0.0 1020199
06:00+4nw2479100 0.0 1020131
09:00+7n35665 0.1 1020542
12:00+10nne454585 0.0 10201743
15:00+10nnw355090 0.1 10201373
18:00+7n486556 0.2 1021251
21:00+3nne238983 0.2 102243
18 september, sat
sat1800:00+5nne267988 0.0 1023210
03:00+5n257062 0.0 1024174
06:00+1nne239358 0.0 102541
09:00+6nne2473100 0.0 1026302
12:00+8ne346391 0.0 1026782
15:00+9nne4452100 0.1 10251343
18:00+6ne36665 0.0 1026160
21:00+2ene227470 0.0 102725
19 september, sun
sun1900:00+2e3475100 0.0 102781
03:00+1e3679100 0.0 1027128
06:00+1ene3782100 0.0 1027175
09:00+4e4766100 0.0 1027384
12:00+6e5759100 0.0 1026874
15:00+7e5656100 0.0 10251012
18:00+6e5859100 0.0 1024634
21:00+4ene41166100 0.0 1024379
20 september, mon
mon2000:00+3ene41170100 0.0 1024360
03:00+3ene51279100 0.0 1023407
06:00+3ene61279100 0.0 1024525
09:00+4ene71375100 0.0 1024695
12:00+7ene81161100 0.0 10231115
15:00+8ene9125899 0.0 10231240
18:00+6ene8136288 0.0 10231126
21:00+6ene81365100 0.0 10231067